Weather History for Wausau, WI

Change the Weather History Date:

Saturday, August 18, 2012

  Actual Average Record
Temperature  
Mean Temperature 61 °F 67 °F  
Max Temperature 76 °F 78 °F 94 °F (1947)
Min Temperature 45 °F 57 °F 38 °F (1950)
Degree Days  
Heating Degree Days 4 1  
Month to date heating degree days 13 18  
Since 1 June heating degree days 54 130  
Since 1 July heating degree days 13 41  
Cooling Degree Days 0 4  
Month to date cooling degree days 65 78  
Year to date cooling degree days 602 338  
Since 1 June cooling degree days 559 319  
Growing Degree Days 10 (Base 50)    
Moisture  
Dew Point 46 °F    
Average Humidity 63    
Maximum Humidity 93    
Minimum Humidity 33    
Precipitation  
Precipitation T in 0.13 in 2.03 in (1990)
Month to date precipitation 2.00 2.47  
Year to date precipitation 18.77 20.52  
Snow  
Snow 0.00 in 0.00 in 0.00 in ()
Month to date snowfall 0.0 0.0  
Since 1 June snowfall 0.0 0.0  
Since 1 July snowfall 0.0 0.0  
Snow Depth 0.00 in    
Sea Level Pressure  
Sea Level Pressure 29.99 in    
Wind  
Wind Speed 5 mph (WNW)    
Max Wind Speed 17 mph    
Max Gust Speed 24 mph    
Visibility 10 miles    
Events Rain    
T = Trace of Precipitation, MM = Missing Value Source: NWS Daily Summary

Daily Weather History Graph

Daily Weather History Graph

Search for Another Location

Airport:

Trip Planner

Search our weather history database for the weather conditions in past years. The results will help you decide how hot, cold, wet, or windy it might be!

Date:

Astronomy

Aug. 18, 2012 Rise Set
Actual Time 6:04 AM CDT 7:59 PM CDT
Civil Twilight 5:33 AM CDT 8:30 PM CDT
Nautical Twilight 4:54 AM CDT 9:08 PM CDT
Astronomical Twilight 4:12 AM CDT 9:50 PM CDT
Moon 7:18 AM CDT (8/18) 8:07 PM CDT (8/18)
Length of Visible Light 14h 57m
Length of Day
13h 54m
New Moon, 1% of the Moon is Illuminated
Aug 18
New Moon
Aug 24
First Quarter
Aug 31
Full
Sep 8
Last Quarter
Sep 15
New

Hourly Weather History & Observations

Time (CDT) Temp. Dew Point Humidity Pressure Visibility Wind Dir Wind Speed Gust Speed Precip Events Conditions
12:54 AM 51.1 °F 44.1 °F 77% 30.04 in 10.0 mi Calm Calm - N/A   Clear
1:54 AM 48.9 °F 44.1 °F 83% 30.03 in 10.0 mi NW 3.5 mph - N/A   Clear
2:54 AM 48.9 °F 45.0 °F 86% 30.03 in 10.0 mi West 3.5 mph - N/A   Clear
3:54 AM 46.9 °F 45.0 °F 93% 30.03 in 10.0 mi Calm Calm - N/A   Clear
4:54 AM 46.0 °F 44.1 °F 93% 30.03 in 10.0 mi Calm Calm - N/A   Clear
5:54 AM 45.0 °F 43.0 °F 93% 30.04 in 10.0 mi Calm Calm - N/A   Clear
7:54 AM 53.1 °F 48.0 °F 83% 30.04 in 10.0 mi Calm Calm - N/A   Clear
8:54 AM 60.1 °F 46.9 °F 62% 30.03 in 10.0 mi NW 3.5 mph - N/A   Clear
10:54 AM 69.1 °F 46.9 °F 45% 30.02 in 10.0 mi West 10.4 mph - N/A   Clear
11:54 AM 70.0 °F 45.0 °F 41% 30.01 in 10.0 mi WNW 6.9 mph - N/A   Scattered Clouds
12:54 PM 73.0 °F 45.0 °F 37% 29.99 in 10.0 mi Variable 4.6 mph - N/A   Partly Cloudy
1:54 PM 72.0 °F 45.0 °F 38% 29.98 in 10.0 mi NW 8.1 mph - N/A   Mostly Cloudy
2:54 PM 75.0 °F 45.0 °F 34% 29.96 in 10.0 mi West 9.2 mph 16.1 mph N/A   Partly Cloudy
3:54 PM 75.9 °F 45.0 °F 33% 29.94 in 10.0 mi West 9.2 mph - N/A   Scattered Clouds
4:54 PM 73.0 °F 43.0 °F 34% 29.93 in 10.0 mi WNW 8.1 mph - N/A   Overcast
5:54 PM 70.0 °F 46.9 °F 44% 29.94 in 10.0 mi West 9.2 mph - 0.00 in   Mostly Cloudy
6:54 PM 66.9 °F 48.9 °F 52% 29.97 in 10.0 mi NNW 10.4 mph 21.9 mph 0.00 in Rain Light Rain
7:54 PM 63.0 °F 51.1 °F 65% 29.97 in 10.0 mi Calm Calm - 0.00 in   Scattered Clouds
8:54 PM 62.1 °F 48.9 °F 62% 29.97 in 10.0 mi NW 4.6 mph - N/A   Mostly Cloudy
9:54 PM 60.1 °F 48.9 °F 67% 29.97 in 10.0 mi West 6.9 mph - N/A   Mostly Cloudy
10:54 PM 57.9 °F 51.1 °F 78% 29.98 in 10.0 mi WNW 8.1 mph - N/A   Clear
11:54 PM 57.0 °F 51.1 °F 81% 29.98 in 10.0 mi NNW 3.5 mph - N/A   Clear